Weather History for MKJP - February, 2014

Change the Weather History Date:

Saturday, February 15, 2014

  Actual Average Record
Temperature  
Mean Temperature 80 °F -  
Max Temperature 87 °F 84 °F 89 °F (2012)
Min Temperature 73 °F 74 °F 73 °F (2005)
Cooling Degree Days 15    
Growing Degree Days 30 (Base 50)    
Moisture  
Dew Point 72 °F    
Average Humidity 74    
Maximum Humidity 84    
Minimum Humidity 58    
Precipitation  
Precipitation 0.00 in - - ()
Sea Level Pressure  
Sea Level Pressure 30.01 in    
Wind  
Wind Speed 7 mph ()    
Max Wind Speed 18 mph    
Max Gust Speed -    
Visibility 7.1 miles    
Events      
Averages and records for this station are not official NWS values.
T = Trace of Precipitation, MM = Missing Value Source: Averaged Metar Reports

Daily Weather History Graph

Daily Weather History Graph

Search for Another Location

Airport or City:

Trip Planner

Search our weather history database for the weather conditions in past years. The results will help you decide how hot, cold, wet, or windy it might be!

Date:

Astronomy

Feb. 15, 2014 Rise Set
Actual Time 6:34 AM EST 6:08 PM EST
Civil Twilight 6:12 AM EST 6:30 PM EST
Nautical Twilight 5:46 AM EST 6:56 PM EST
Astronomical Twilight 5:20 AM EST 7:21 PM EST
Moon 6:51 PM EST (2/15) 6:43 AM EST (2/15)
Length of Visible Light 12h 18m
Length of Day
11h 34m
Full, 100% of the Moon is Illuminated
Feb 15
Full
Feb 22
Last Quarter
Mar 1
New
Mar 8
First Quarter
Mar 16
Full

Hourly Weather History & Observations

Time (EST) Temp. Heat Index Dew Point Humidity Pressure Visibility Wind Dir Wind Speed Gust Speed Precip Events Conditions
12:00 AM 78.8 °F - 71.6 °F 78% 30.01 in 6.2 mi NE 5.8 mph - N/A   Partly Cloudy
1:00 AM 79 °F - 70 °F 67% 30.00 in 12 mi ESE 5.8 mph - -   Haze
1:00 AM 78.8 °F - 69.8 °F 74% 29.98 in 6.2 mi ESE 5.8 mph - N/A   Partly Cloudy
2:00 AM 78.8 °F - 69.8 °F 74% 29.98 in 6.2 mi East 3.5 mph - N/A   Partly Cloudy
3:00 AM 78.8 °F - 68.0 °F 69% 29.95 in 6.2 mi North 4.6 mph - N/A   Partly Cloudy
4:00 AM 78 °F - 69 °F 66% 29.98 in 12 mi North 4.6 mph - -   Scattered Clouds
4:00 AM 77.0 °F - 68.0 °F 74% 29.98 in 6.2 mi North 4.6 mph - N/A   Partly Cloudy
5:00 AM 77.0 °F - 69.8 °F 78% 29.98 in 6.2 mi North 5.8 mph - N/A   Partly Cloudy
6:00 AM 77.0 °F - 68.0 °F 74% 29.98 in 6.2 mi Variable 2.3 mph - N/A   Partly Cloudy
7:00 AM 76 °F - 69 °F 74% 30.01 in 11 mi 2.3 mph - -   Haze
7:00 AM 75.2 °F - 69.8 °F 83% 30.01 in 6.2 mi Variable 2.3 mph - N/A   Partly Cloudy
8:00 AM 78.8 °F - 69.8 °F 74% 30.01 in 6.2 mi NW 8.1 mph - N/A   Partly Cloudy
9:00 AM 78.8 °F - 71.6 °F 78% 30.04 in 6.2 mi NNW 8.1 mph - N/A   Partly Cloudy
10:00 AM 84 °F - 72 °F 58% 30.06 in 7 mi SE 13.8 mph - -   Haze
10:00 AM 84.2 °F 89.6 °F 71.6 °F 66% 30.04 in 6.2 mi SE 13.8 mph - N/A   Partly Cloudy
11:00 AM 84.2 °F 90.9 °F 73.4 °F 70% 30.04 in 6.2 mi SSE 17.3 mph - N/A   Partly Cloudy
12:00 PM 84.2 °F 90.9 °F 73.4 °F 70% 30.04 in 6.2 mi SSE 17.3 mph - N/A   Partly Cloudy
1:00 PM 87 °F - 78 °F 67% 30.02 in 9 mi SSE 18.4 mph - -   Haze
1:00 PM 87.8 °F 99.7 °F 77.0 °F 70% 30.01 in 6.2 mi SSE 18.4 mph - N/A   Partly Cloudy
2:00 PM 84.2 °F 90.9 °F 73.4 °F 70% 29.98 in 6.2 mi SSE 18.4 mph - N/A   Partly Cloudy
3:00 PM 84.2 °F 90.9 °F 73.4 °F 70% 29.98 in 6.2 mi SSE 16.1 mph - N/A   Scattered Clouds
3:30 PM 80.6 °F 84.6 °F 71.6 °F 74% 29.98 in 6.2 mi NE 10.4 mph - N/A   Scattered Clouds
4:00 PM 78 °F - 71 °F 72% 30.00 in 3 mi NE 16.1 mph - -   Mostly Cloudy
4:00 PM 77.0 °F - 69.8 °F 78% 29.98 in 6.2 mi NE 16.1 mph - N/A   Partly Cloudy
5:00 PM 80.6 °F 84.6 °F 71.6 °F 74% 30.01 in 6.2 mi East 8.1 mph - N/A   Mostly Cloudy
5:40 PM 78.8 °F - 71.6 °F 78% 30.01 in 5.6 mi East 5.8 mph - N/A   Scattered Clouds
6:00 PM 78.8 °F - 71.6 °F 78% 30.01 in 6.2 mi ESE 5.8 mph - N/A   Scattered Clouds
7:00 PM 81 °F - 75 °F 78% 30.03 in 14 mi NE 5.8 mph - -   Haze
7:00 PM 80.6 °F 86.2 °F 75.2 °F 84% 30.01 in 6.2 mi NE 5.8 mph - N/A   Scattered Clouds
8:00 PM 78.8 °F - 71.6 °F 78% 30.04 in 6.2 mi North 6.9 mph - N/A   Scattered Clouds
9:00 PM 78.8 °F - 71.6 °F 78% 30.04 in 6.2 mi NNE 6.9 mph - N/A   Partly Cloudy
10:00 PM 78 °F - 71 °F 72% 30.06 in 14 mi North 6.9 mph - -   Haze
10:00 PM 78.8 °F - 71.6 °F 78% 30.06 in 6.2 mi North 6.9 mph - N/A   Partly Cloudy
11:00 PM 78.8 °F - 71.6 °F 78% 30.04 in 6.2 mi North 8.1 mph - N/A   Partly Cloudy